Find Starlink 3623

NORAD ID: 51772 Int'l Des: 2022-017 Owner: SPXS Country: US Constellation: starlink operational
LEOCIRCULAR

实时位置

正在加载3D地球...

关于 Starlink 3623

正在加载描述...

即将过境

Passes for default location (London). Set your location on the main map for personalized predictions.

高度历史

Loading altitude history...

两行轨道根数

1 51772U 22017E 26127.22491408 -.00000517 00000-0 -14384-4 0 9991
2 51772 53.2178 76.3442 0001427 94.1156 265.9999 15.08833117231435
Epoch: May 7, 2026 • Age: 7 hours

当前状态

高度 545.3 km
速度 7.60 km/s
星下点 53.00°N, 108.37°E
发射日期 Feb 25, 2022
运行时间 4.1 years
类型 internet

技术详情

分类 Payload
质量 297.00 kg
干质量 275.00 kg
总质量 297.00 kg
长度 0.20 m
直径 2.80 m
跨度 9.00 m
形状 Box + pan
制造商 SPXS
平台类型 Starlink
阶段状态 In Orbit
所有者/国家 SPXS/US

Most Searched